SCP
0 0 0 0 0 0 0 0 0 0 0 0 0 0 0 0 0 0 0 0 0 0 0 0 0 0 0 0 0 0 0 0 0 0 -0 -0 -0 -0 0 0 0 0 0 0 0 0 0 0 0 0 0 0 0 0
0 0 0 0 0 0 0 0 0 0 0 0 0 0 0 0 0 0 0 0 0 0 0 0 0 0 0 0 0 0 0 0 0 0 -0 -0 -0 -0 -0 0 0 0 0 0 0 0 0 0 0 0 0 0 0 0
0 0 0 0 0 0 0 0 0 0 0 0 0 0 0 0 0 0 0 0 0 0 0 0 0 0 0 0 0 0 -0 0 0 0 0 0 0 -0 -0 -0 0 0 0 0 0 0 0 0 0 0 0 0 0 0
0 0 0 0 0 0 0 0 0 0 0 0 0 0 0 0 0 0 0 0 0 0 0 0 0 0 0 0 0 0 0 0 0 0 0 0 0 0 -0 0 0 0 0 0 0 0 0 0 0 0 0 0 0 0
0 0 0 0 0 0 0 0 0 0 0 0 0 0 0 0 0 0 0 0 0 0 0 0 0 0 0 0 0 0 0 0 0 0 0 0 0 0 0 0 -0 0 -0 0 0 0 0 0 0 0 0 0 0 0
0 0 0 0 0 0 0 0 0 0 0 0 0 0 0 0 0 0 0 0 0 0 0 0 0 0 0 0 0 0 0 0 0 0 0 0 0 0 0 0 0 -0 -0 -0 0 0 -0 0 0 0 0 0 0 0
0 0 0 0 0 0 0 0 0 0 0 0 0 0 0 0 0 0 0 0 0 0 0 0 0 0 0 0 0 0 0 0 0 0 0 0 0 0 0 0 0 -0 -0 -0 -0 -0 -0 0 0 0 0 0 0 0
0 0 0 0 0 0 0 0 0 0 0 0 0 0 0 0 0 0 0 0 0 0 0 0 0 0 0 0 0 0 0 0 0 0 0 0 0 0 0 -0 -0 0 -0 -0 -0 -0 -0 -0 -0 -0 -0 0 0 -0
0 0 0 0 0 0 0 0 0 0 0 0 0 0 0 0 0 0 0 0 0 0 0 0 0 0 0 0 0 0 0 0 0 0 0 0 0 0 0 -0 0 0 0 0 -0 -0 -0 -0 -0 -0 0 0 0 0
0 0 0 0 0 0 0 0 0 0 0 0 0 0 0 0 0 0 0 0 0 0 0 0 0 0 0 0 0 0 0 0 0 0 0 0 0 0 0 0 0 -0 -0 0 -0 0 0 -0 -0 -0 -0 0 0 0
0 0 0 0 0 0 0 0 0 0 0 0 0 0 0 0 0 0 0 0 0 0 0 0 0 0 0 0 0 0 0 0 0 0 0 0 0 0 0 0 0 0 0 0 0 0 0 0 0 0 -0 -0 0 0
0 0 0 0 0 0 0 0 0 0 0 0 0 0 0 0 0 0 0 0 0 0 0 0 0 0 0 0 0 0 0 0 0 0 0 0 0 0 0 0 0 0 0 0 0 0 0 0 0 0 0 0 0 0
0 0 0 0 0 0 0 0 0 0 0 0 0 0 0 0 0 0 0 0 0 0 0 0 0 0 0 0 0 0 0 0 0 0 0 0 0 0 0 -0 0 0 0 0 0 0 0 0 0 0 0 0 0 0
0 0 0 0 0 0 0 0 0 0 0 0 0 0 0 0 0 0 0 0 0 0 0 0 0 0 0 0 0 0 0 0 0 0 0 0 0 0 0 0 0 0 0 0 0 0 0 0 0 0 0 0 0 0
0 0 0 0 0 0 0 0 0 0 0 0 0 0 0 0 0 0 0 0 0 0 0 0 0 0 0 0 0 0 0 0 0 0 0 0 0 0 0 0 0 0 0 0 0 0 0 0 0 0 0 0 0 0
0 0 0 0 0 0 0 0 0 0 0 0 0 0 0 0 0 0 0 0 0 0 0 0 0 0 0 0 0 0 0 0 0 0 0 0 0 0 0 0 0 0 0 0 0 0 0 0 0 0 0 0 0 0
0 0 0 0 0 0 0 0 0 0 0 0 0 0 0 0 0 0 0 0 0 0 0 0 0 0 0 0 0 0 0 0 0 0 0 0 0 0 0 0 0 0 0 0 0 0 0 0 0 0 0 0 0 0
0 0 0 0 0 0 0 0 0 0 0 0 0 0 0 0 0 0 0 0 0 0 0 0 0 0 0 0 0 0 0 0 0 0 0 0 0 0 0 0 0 0 0 0 0 0 0 0 0 0 0 0 0 0
0 0 0 0 0 0 0 0 0 0 0 0 0 0 0 0 0 0 0 0 0 0 0 0 0 0 0 0 0 0 0 0 0 0 0 0 0 0 0 0 0 0 0 0 0 0 0 0 0 0 0 0 0 0
0 0 0 0 0 0 0 0 0 0 0 0 0 0 0 0 0 0 0 0 0 0 0 0 0 0 0 0 0 0 0 0 0 0 0 0 0 0 0 0 0 0 0 0 0 0 0 0 0 0 0 0 0 0
0 0 0 0 0 0 0 0 0 0 0 0 0 0 0 0 0 0 0 0 0 0 0 0 0 0 0 0 0 0 0 0 0 0 0 0 0 0 0 0 0 0 0 0 0 0 0 0 0 0 0 0 0 0
0 0 0 0 0 0 0 0 0 0 0 0 0 0 0 0 0 0 0 0 0 0 0 0 0 0 0 0 0 0 0 0 0 0 0 0 0 0 0 0 0 0 0 0 0 0 0 0 0 0 0 0 0 0
0 0 0 0 0 0 0 0 0 0 0 0 0 0 0 0 0 0 0 0 0 0 0 0 0 0 0 0 0 0 0 0 0 0 0 0 0 0 0 0 0 0 0 0 0 0 0 0 0 0 0 0 0 0
0 0 0 0 0 0 0 0 0 0 0 0 0 0 0 0 0 0 0 0 0 0 0 0 0 0 0 0 0 0 0 0 0 0 0 0 0 0 0 0 0 0 0 0 0 0 0 0 0 0 0 0 0 0
0 0 0 0 0 0 0 0 0 0 0 0 0 0 0 0 0 0 0 0 0 0 0 0 0 0 0 0 0 0 0 0 0 0 0 0 0 0 0 0 0 0 0 0 0 0 0 0 0 0 0 0 0 0
0 0 0 0 0 0 0 0 0 0 0 0 0 0 0 0 0 0 0 0 0 0 0 0 0 0 0 0 0 0 0 0 0 0 0 0 0 0 0 0 0 0 0 0 0 0 0 0 0 0 0 0 0 0
0 0 0 0 0 0 0 0 0 0 0 0 0 0 0 0 0 0 0 0 0 0 0 0 0 0 0 0 0 0 0 0 0 0 0 0 0 0 0 0 0 0 0 0 0 0 0 0 0 0 0 0 0 0
0 0 0 0 0 0 0 0 0 0 0 0 0 0 0 0 0 0 0 0 0 0 0 0 0 0 0 0 0 0 0 0 0 0 0 0 0 0 0 0 0 0 0 0 0 0 0 0 0 0 0 0 0 0
0 0 0 0 0 0 0 0 0 0 0 0 0 0 0 0 0 0 0 0 0 0 0 0 0 0 0 0 0 0 0 0 0 0 0 0 0 0 0 0 0 0 0 0 0 0 0 0 0 0 0 0 0 0
0 0 0 0 0 0 0 0 0 0 0 0 0 0 0 0 0 0 0 0 0 0 0 0 0 0 0 0 0 0 0 0 0 0 0 0 0 0 0 0 0 0 0 0 0 0 0 0 0 0 0 0 0 0
0 0 0 0 0 0 0 0 0 0 0 0 0 0 0 0 0 0 0 0 0 0 0 0 0 0 0 0 0 0 0 0 0 0 0 0 0 0 0 0 0 0 0 0 0 0 0 0 0 0 0 0 0 0
0 0 0 0 0 0 0 0 -0 0 0 0 0 0 0 0 0 0 0 0 0 0 0 0 0 0 0 0 0 0 0 0 0 0 0 0 0 0 0 0 0 0 0 0 0 0 0 0 0 0 0 0 0 0
0 0 0 0 0 0 0 0 0 0 0 0 0 0 0 0 0 0 0 0 0 0 0 0 0 0 0 0 0 0 0 0 0 0 0 0 0 0 0 0 0 0 0 0 0 0 0 0 0 0 0 0 0 0
Wind_Speed_500mb
131 121 114 106 99 95 87 80 78 70 67 62 56 49 44 40 36 35 29 28 17 10 19 14 11 5 6 4 6 3 4 9 8 8 5 3 2 5 6 6 0 2 4 3 5 8 4 15 9 8 2 3 5 7
135 124 117 109 103 99 91 85 82 75 70 67 60 53 48 43 39 35 32 32 22 10 14 17 13 12 7 7 4 5 5 2 5 5 3 4 4 3 4 5 6 3 6 4 9 8 4 9 8 5 4 3 2 8
132 127 120 111 106 102 98 90 85 79 73 70 64 58 51 45 41 36 29 34 28 13 13 15 12 15 14 9 5 2 5 7 5 6 4 2 2 1 2 8 5 4 3 3 8 7 3 4 12 2 9 11 12 15
139 139 126 117 109 105 101 95 92 85 77 73 67 60 53 47 39 36 34 36 28 14 9 8 14 12 12 14 14 7 4 9 16 8 3 4 5 10 5 6 5 6 4 4 9 14 12 16 22 22 15 16 21 19
140 140 129 121 112 110 104 96 98 89 80 75 70 62 55 48 42 35 30 35 30 10 11 10 14 10 10 9 11 15 13 7 3 3 4 5 6 2 4 1 7 12 10 7 8 6 1 6 11 37 28 26 20 17
156 133 137 122 116 110 105 101 100 92 84 77 71 64 57 50 44 40 13 31 30 21 9 4 8 10 11 10 11 14 18 10 5 2 4 5 4 3 3 5 17 29 22 20 4 14 35 35 24 15 24 17 23 22
152 117 137 129 121 114 108 105 99 95 84 76 71 64 56 51 48 22 10 23 42 29 9 7 3 3 12 15 9 11 12 5 5 5 4 4 3 7 4 7 18 12 18 19 13 11 11 7 15 31 26 29 31 30
142 139 143 138 128 120 113 108 98 98 86 75 69 61 55 51 42 21 19 38 40 17 9 7 3 3 12 8 4 6 7 7 5 4 4 7 5 6 8 31 34 25 27 31 29 17 22 36 48 48 46 45 42 38
154 153 161 149 137 128 117 112 101 104 90 77 70 63 55 36 23 25 35 38 35 9 13 7 10 7 17 8 8 8 7 4 2 4 6 2 4 11 19 26 27 14 12 22 31 40 42 43 38 30 27 26 29 29
169 168 159 151 146 132 125 117 108 108 96 87 81 44 19 33 36 44 16 15 11 7 9 6 16 7 16 8 5 9 3 3 3 6 7 6 8 48 48 42 46 49 51 47 46 41 26 35 33 33 34 34 34 33
175 170 165 157 146 136 131 124 120 116 111 99 34 17 55 53 39 9 9 8 7 4 16 16 14 12 15 7 6 6 5 3 3 7 3 5 7 8 6 7 4 7 11 16 19 28 34 39 42 41 36 31 30 31
175 178 165 162 149 144 139 131 136 134 78 70 48 82 66 20 11 9 9 5 9 13 20 18 15 15 16 10 11 5 6 3 8 2 1 7 8 17 14 11 12 13 15 16 22 28 32 37 39 41 39 32 26 26
172 166 162 154 148 144 140 140 141 102 93 89 42 20 18 13 10 20 20 8 7 21 27 28 10 16 12 9 11 5 9 8 2 3 8 10 12 15 15 10 12 18 22 26 30 36 40 38 36 36 30 24 25 23
158 158 156 150 144 142 143 147 126 122 101 21 19 19 16 12 14 9 11 12 17 32 64 53 20 11 11 7 7 8 5 5 3 3 12 6 15 9 15 11 16 21 23 26 29 31 31 32 28 24 19 16 16 15
152 145 138 137 140 143 143 139 123 117 41 12 15 14 12 10 9 32 49 43 30 73 73 32 17 12 6 8 4 7 3 8 11 10 7 12 13 12 8 17 21 22 24 25 24 23 23 21 15 8 7 5 6 7
130 127 129 136 133 139 134 119 105 65 37 16 14 7 8 16 4 24 34 30 58 77 55 13 8 7 6 11 7 15 14 13 8 8 19 19 15 8 11 18 18 17 17 17 18 21 16 10 3 5 2 5 10 15
133 74 126 128 131 127 128 96 59 26 28 13 7 19 22 22 29 42 40 45 73 73 8 11 11 12 9 7 4 9 11 7 16 20 21 24 16 9 10 13 15 14 11 14 15 13 9 3 5 7 9 10 14 16
86 99 135 140 135 114 95 43 27 15 10 14 14 33 41 40 53 50 40 78 60 39 26 11 22 7 11 16 7 9 34 23 11 26 23 20 13 10 11 15 15 13 10 8 9 6 4 4 4 7 9 9 11 12
88 114 115 132 118 63 20 26 18 8 8 17 33 60 46 51 67 76 65 87 44 56 32 21 10 8 8 14 14 21 27 30 32 27 27 24 19 15 14 14 13 11 8 6 4 3 4 5 5 7 9 10 8 9
81 92 117 122 106 20 11 8 22 13 8 16 39 56 40 36 65 72 70 71 52 37 6 4 9 13 21 30 23 21 15 21 22 32 36 34 26 18 13 11 9 11 11 9 8 4 7 10 11 10 10 11 8 8
94 81 101 95 46 19 13 8 8 8 15 13 35 53 20 50 44 34 36 50 21 18 5 9 16 27 24 20 28 29 29 26 28 27 23 31 27 22 14 11 11 13 17 18 18 16 15 14 13 15 16 14 13 13
61 63 66 39 17 11 13 11 11 9 9 16 34 19 21 8 17 30 48 15 8 11 9 9 15 21 25 27 27 29 32 33 36 34 32 27 31 24 18 13 13 12 15 16 15 13 13 16 16 15 14 13 13 12
47 43 24 17 13 11 6 7 7 6 6 4 10 8 5 7 18 46 13 8 7 8 13 13 14 17 22 26 27 27 28 33 35 38 38 36 32 26 23 18 17 19 22 22 21 18 17 16 16 16 15 15 15 15
29 18 19 16 24 6 9 12 8 7 9 6 6 7 6 5 5 10 7 6 3 3 8 11 12 16 21 24 24 23 23 24 32 36 38 40 39 33 30 26 25 26 30 32 31 28 26 23 20 19 19 19 19 17
18 25 18 15 20 14 14 12 12 9 7 8 6 6 5 9 5 6 4 8 8 8 5 5 7 8 13 20 20 20 20 20 25 31 36 38 40 38 36 34 34 35 37 39 37 33 32 31 28 25 23 22 21 20
19 24 15 15 14 10 10 9 13 12 9 8 9 15 10 4 6 7 4 15 13 10 11 7 7 9 11 12 18 22 23 24 24 26 30 31 32 32 33 33 35 33 36 39 40 37 36 36 33 30 28 27 27 26
14 12 16 20 9 5 8 11 10 9 12 11 9 12 6 5 5 4 5 10 18 14 14 12 11 12 14 15 17 19 21 25 27 28 30 29 30 31 31 30 29 32 35 35 42 42 37 37 36 33 31 32 30 27
14 21 11 22 14 17 7 7 9 8 6 14 8 11 6 8 3 11 8 16 16 10 8 9 9 10 10 13 14 15 18 20 22 24 26 27 25 25 27 28 26 28 28 32 34 32 37 37 39 37 34 32 30 30
14 30 12 10 10 15 14 6 3 5 8 7 3 3 3 3 11 13 15 15 11 10 6 0 3 4 6 8 8 9 9 12 17 22 24 23 22 24 21 23 23 23 25 27 28 30 30 32 35 35 35 33 31 32
19 29 11 11 9 7 10 11 10 11 11 10 8 8 7 7 15 15 14 12 11 13 12 10 6 1 3 5 5 6 6 7 10 16 19 20 21 22 21 21 20 19 20 24 27 29 32 32 32 33 35 34 33 33
17 18 7 11 6 5 6 11 10 15 8 10 10 8 8 4 4 14 15 14 13 12 8 6 6 5 3 1 6 7 5 8 9 11 15 18 17 15 15 15 15 17 18 20 20 21 21 22 25 27 30 31 31 31
20 15 6 5 2 3 6 5 4 2 3 4 6 3 2 1 2 1 10 8 8 9 8 8 8 7 5 4 3 3 5 8 10 12 14 15 15 15 14 14 15 15 17 16 18 19 18 19 20 22 23 24 25 25
7 8 9 6 8 7 12 10 6 4 4 3 4 5 4 3 4 4 8 10 8 6 7 6 6 8 8 8 8 9 11 12 15 12 10 10 10 12 13 12 12 11 12 14 17 17 17 17 20 22 23 22 22 23
Wind_Direction_500mb
209 207 208 208 208 203 204 201 194 197 196 195 195 192 191 190 191 191 194 189 183 136 157 173 168 163 160 171 138 331 20 347 33 65 83 25 353 349 315 265 166 146 95 344 28 37 342 360 344 76 200 83 87 58
210 206 207 206 206 203 203 200 193 195 195 192 192 191 189 189 191 189 187 189 182 150 155 169 172 169 157 138 133 39 119 139 49 99 45 52 355 342 327 302 322 331 179 212 169 215 318 360 31 30 84 106 59 4
209 208 206 206 205 203 200 198 192 193 194 191 190 189 187 187 189 191 190 183 174 143 136 163 181 189 198 192 173 163 186 153 124 95 114 123 231 319 233 257 300 295 10 194 38 289 249 347 315 238 343 320 312 308
215 208 206 204 201 200 198 197 189 192 191 189 189 187 185 185 185 186 185 181 178 144 128 182 188 182 198 214 218 210 171 157 150 168 94 123 149 178 231 254 246 242 23 199 270 284 295 55 92 47 26 20 2 359
214 209 205 200 198 198 197 193 188 189 187 186 187 184 184 180 179 178 178 182 184 167 157 150 158 176 190 198 206 195 172 180 166 116 92 218 238 74 300 229 248 199 191 162 225 267 255 306 308 331 332 330 334 336
207 208 201 198 195 196 196 190 189 188 185 184 184 181 182 177 172 162 159 196 187 168 151 104 158 153 170 176 166 162 176 167 181 201 219 231 235 187 109 219 255 230 232 241 236 305 297 294 302 314 326 321 309 308
213 214 207 198 191 196 192 187 188 185 181 181 180 178 177 173 173 182 182 177 176 173 162 100 83 110 155 147 133 137 141 158 213 237 221 257 220 205 150 230 254 247 248 258 259 314 289 282 291 301 297 302 299 292
208 211 203 192 188 190 186 186 184 180 179 175 173 171 169 169 176 180 149 157 164 162 160 115 122 114 152 117 122 143 166 190 232 297 218 227 234 197 250 241 252 263 275 269 272 282 293 297 297 299 295 293 290 288
200 201 194 191 184 184 183 183 179 175 172 166 162 162 159 165 162 155 149 161 170 161 161 134 145 201 156 130 127 152 168 154 207 228 251 263 235 226 225 243 263 284 297 294 289 293 294 291 296 303 306 301 294 294
196 188 185 181 181 180 179 179 173 171 164 158 158 149 163 170 150 134 130 159 179 220 192 158 131 154 157 140 134 141 81 179 168 253 303 237 258 256 255 260 273 279 279 280 285 294 304 302 306 302 294 290 293 290
192 186 182 181 177 175 176 175 168 167 162 155 157 144 142 146 141 149 132 148 174 285 196 171 157 137 173 117 167 197 179 182 191 262 208 275 278 254 238 190 313 324 302 283 280 289 297 299 307 306 300 287 280 278
187 183 178 177 173 173 173 171 167 167 165 166 150 134 133 157 147 145 178 154 186 210 170 150 143 123 138 128 99 152 149 175 238 308 127 263 255 258 248 261 286 302 298 285 287 294 301 303 303 301 302 298 284 273
176 172 172 171 171 173 172 170 168 166 157 133 128 156 163 167 166 181 183 205 162 168 164 153 131 130 122 109 93 140 170 215 121 187 231 231 262 213 216 282 277 303 302 299 300 304 307 306 302 302 300 288 276 262
166 166 170 170 171 171 172 168 168 161 142 147 153 153 188 185 214 177 159 154 171 153 148 140 120 119 117 110 139 161 217 110 162 279 235 248 229 206 227 252 286 300 302 303 305 305 303 303 301 298 294 286 273 248
159 164 168 169 170 172 170 168 163 159 155 125 140 194 190 165 139 167 154 140 138 150 145 119 90 109 121 118 113 116 67 237 203 229 223 231 193 198 261 298 306 308 306 308 310 311 307 303 297 286 302 297 217 199
162 163 167 169 169 169 169 166 161 164 170 154 197 93 133 122 93 147 153 136 147 148 144 121 115 97 156 140 127 207 152 221 238 216 209 165 178 216 285 300 299 302 308 317 323 319 316 304 251 191 163 175 158 153
156 161 169 169 171 168 168 156 157 161 176 191 199 173 156 146 157 164 161 153 156 150 146 128 114 186 107 102 229 197 202 220 211 203 173 181 191 243 286 302 303 305 306 325 327 332 337 320 171 169 157 169 167 161
160 165 168 169 169 162 161 168 167 142 167 167 147 162 168 165 163 161 161 156 153 181 156 167 126 137 165 170 235 223 218 217 190 185 187 194 209 236 284 293 300 297 297 312 327 356 44 79 137 150 137 159 156 154
162 163 172 169 163 153 143 174 176 131 195 139 161 168 171 170 179 177 171 165 176 172 147 150 108 169 205 218 206 196 205 203 207 200 203 208 223 243 271 287 297 275 269 288 297 157 138 170 175 168 159 167 182 189
159 170 175 166 168 142 101 84 167 144 164 153 156 165 166 170 174 179 170 171 167 164 157 148 187 197 192 194 194 190 203 203 207 211 222 228 228 246 266 276 276 249 239 245 243 266 200 201 211 212 211 214 211 187
124 130 149 162 150 84 92 107 97 127 125 131 151 150 132 151 153 162 159 164 162 186 210 202 189 183 192 199 212 216 206 198 210 220 234 212 220 231 242 254 259 245 236 234 246 257 237 212 203 207 225 228 208 210
95 115 100 108 81 78 81 60 100 101 101 119 144 125 122 113 143 153 153 163 165 190 201 192 190 200 200 200 198 205 208 211 215 220 218 225 217 228 237 234 238 225 220 220 218 218 208 197 196 197 206 221 229 235
97 90 60 55 81 59 51 38 100 60 106 123 116 100 118 130 144 144 82 90 126 190 214 217 213 209 208 207 209 209 209 210 212 216 218 220 219 227 232 227 229 224 211 202 204 204 206 207 208 214 223 231 238 242
67 57 37 40 32 26 8 28 34 70 79 54 63 84 42 36 87 58 95 71 45 136 200 209 223 220 219 216 215 215 218 219 217 218 222 223 221 224 228 226 225 220 214 212 213 215 221 226 231 235 239 239 237 230
73 14 24 14 17 16 21 9 359 32 57 9 87 64 23 9 81 60 51 12 26 38 40 203 216 221 227 228 221 224 232 237 234 230 226 226 227 227 228 228 228 223 221 222 224 227 231 232 236 239 238 232 226 224
68 16 35 4 10 33 357 25 16 2 357 47 33 335 341 58 71 69 26 344 346 349 350 322 269 239 240 247 246 240 244 251 253 249 239 238 238 242 243 240 236 234 232 230 230 233 235 238 237 238 237 231 227 227
57 2 15 26 14 21 63 36 28 38 38 20 348 345 337 93 73 65 5 358 352 335 326 308 279 262 261 258 262 261 256 251 254 258 251 246 245 244 243 241 243 239 237 239 235 234 239 242 240 236 234 231 231 231
64 31 28 353 45 37 86 55 35 34 8 340 297 27 31 10 40 342 350 340 338 339 321 292 273 268 262 264 271 261 260 260 251 247 246 248 248 246 243 243 240 240 239 240 236 235 236 239 243 238 232 232 232 232
37 357 7 27 46 51 43 53 50 21 353 359 28 75 94 78 356 349 352 353 357 351 347 318 263 268 268 275 276 272 263 254 248 246 253 251 245 246 251 249 243 237 237 237 236 232 233 235 237 239 236 231 229 228
3 4 28 31 59 38 31 37 67 58 63 70 94 105 97 105 50 32 13 7 14 21 25 20 15 157 239 253 276 302 302 276 260 249 245 245 244 250 259 263 258 246 237 234 230 225 224 227 230 233 231 230 230 230
356 359 57 49 75 28 3 357 60 57 57 64 69 97 125 131 55 36 23 16 13 17 7 7 7 9 26 279 265 261 290 305 284 277 274 267 258 248 241 238 243 250 244 230 222 218 217 221 223 223 225 227 227 226
13 29 21 46 44 19 1 4 352 338 3 12 31 27 95 342 314 53 16 15 348 339 355 13 356 3 1 353 338 324 299 284 297 296 284 278 272 271 256 239 228 218 212 214 217 209 207 217 221 220 218 219 218 217
339 13 38 37 23 19 7 1 27 27 43 32 28 18 358 339 303 338 353 2 5 343 312 314 342 345 344 338 325 301 287 285 288 295 311 314 274 253 235 220 212 204 199 187 206 199 192 201 208 204 195 195 200 199
Wind_Speed_850mb
131 121 114 106 99 95 87 80 78 70 67 62 56 49 44 40 36 35 29 28 17 10 19 14 11 5 6 4 6 3 4 9 8 8 5 3 2 5 6 6 0 2 4 3 5 8 4 15 9 8 2 3 5 7
135 124 117 109 103 99 91 85 82 75 70 67 60 53 48 43 39 35 32 32 22 10 14 17 13 12 7 7 4 5 5 2 5 5 3 4 4 3 4 5 6 3 6 4 9 8 4 9 8 5 4 3 2 8
132 127 120 111 106 102 98 90 85 79 73 70 64 58 51 45 41 36 29 34 28 13 13 15 12 15 14 9 5 2 5 7 5 6 4 2 2 1 2 8 5 4 3 3 8 7 3 4 12 2 9 11 12 15
139 139 126 117 109 105 101 95 92 85 77 73 67 60 53 47 39 36 34 36 28 14 9 8 14 12 12 14 14 7 4 9 16 8 3 4 5 10 5 6 5 6 4 4 9 14 12 16 22 22 15 16 21 19
140 140 129 121 112 110 104 96 98 89 80 75 70 62 55 48 42 35 30 35 30 10 11 10 14 10 10 9 11 15 13 7 3 3 4 5 6 2 4 1 7 12 10 7 8 6 1 6 11 37 28 26 20 17
156 133 137 122 116 110 105 101 100 92 84 77 71 64 57 50 44 40 13 31 30 21 9 4 8 10 11 10 11 14 18 10 5 2 4 5 4 3 3 5 17 29 22 20 4 14 35 35 24 15 24 17 23 22
152 117 137 129 121 114 108 105 99 95 84 76 71 64 56 51 48 22 10 23 42 29 9 7 3 3 12 15 9 11 12 5 5 5 4 4 3 7 4 7 18 12 18 19 13 11 11 7 15 31 26 29 31 30
142 139 143 138 128 120 113 108 98 98 86 75 69 61 55 51 42 21 19 38 40 17 9 7 3 3 12 8 4 6 7 7 5 4 4 7 5 6 8 31 34 25 27 31 29 17 22 36 48 48 46 45 42 38
154 153 161 149 137 128 117 112 101 104 90 77 70 63 55 36 23 25 35 38 35 9 13 7 10 7 17 8 8 8 7 4 2 4 6 2 4 11 19 26 27 14 12 22 31 40 42 43 38 30 27 26 29 29
169 168 159 151 146 132 125 117 108 108 96 87 81 44 19 33 36 44 16 15 11 7 9 6 16 7 16 8 5 9 3 3 3 6 7 6 8 48 48 42 46 49 51 47 46 41 26 35 33 33 34 34 34 33
175 170 165 157 146 136 131 124 120 116 111 99 34 17 55 53 39 9 9 8 7 4 16 16 14 12 15 7 6 6 5 3 3 7 3 5 7 8 6 7 4 7 11 16 19 28 34 39 42 41 36 31 30 31
175 178 165 162 149 144 139 131 136 134 78 70 48 82 66 20 11 9 9 5 9 13 20 18 15 15 16 10 11 5 6 3 8 2 1 7 8 17 14 11 12 13 15 16 22 28 32 37 39 41 39 32 26 26
172 166 162 154 148 144 140 140 141 102 93 89 42 20 18 13 10 20 20 8 7 21 27 28 10 16 12 9 11 5 9 8 2 3 8 10 12 15 15 10 12 18 22 26 30 36 40 38 36 36 30 24 25 23
158 158 156 150 144 142 143 147 126 122 101 21 19 19 16 12 14 9 11 12 17 32 64 53 20 11 11 7 7 8 5 5 3 3 12 6 15 9 15 11 16 21 23 26 29 31 31 32 28 24 19 16 16 15
152 145 138 137 140 143 143 139 123 117 41 12 15 14 12 10 9 32 49 43 30 73 73 32 17 12 6 8 4 7 3 8 11 10 7 12 13 12 8 17 21 22 24 25 24 23 23 21 15 8 7 5 6 7
130 127 129 136 133 139 134 119 105 65 37 16 14 7 8 16 4 24 34 30 58 77 55 13 8 7 6 11 7 15 14 13 8 8 19 19 15 8 11 18 18 17 17 17 18 21 16 10 3 5 2 5 10 15
133 74 126 128 131 127 128 96 59 26 28 13 7 19 22 22 29 42 40 45 73 73 8 11 11 12 9 7 4 9 11 7 16 20 21 24 16 9 10 13 15 14 11 14 15 13 9 3 5 7 9 10 14 16
86 99 135 140 135 114 95 43 27 15 10 14 14 33 41 40 53 50 40 78 60 39 26 11 22 7 11 16 7 9 34 23 11 26 23 20 13 10 11 15 15 13 10 8 9 6 4 4 4 7 9 9 11 12
88 114 115 132 118 63 20 26 18 8 8 17 33 60 46 51 67 76 65 87 44 56 32 21 10 8 8 14 14 21 27 30 32 27 27 24 19 15 14 14 13 11 8 6 4 3 4 5 5 7 9 10 8 9
81 92 117 122 106 20 11 8 22 13 8 16 39 56 40 36 65 72 70 71 52 37 6 4 9 13 21 30 23 21 15 21 22 32 36 34 26 18 13 11 9 11 11 9 8 4 7 10 11 10 10 11 8 8
94 81 101 95 46 19 13 8 8 8 15 13 35 53 20 50 44 34 36 50 21 18 5 9 16 27 24 20 28 29 29 26 28 27 23 31 27 22 14 11 11 13 17 18 18 16 15 14 13 15 16 14 13 13
61 63 66 39 17 11 13 11 11 9 9 16 34 19 21 8 17 30 48 15 8 11 9 9 15 21 25 27 27 29 32 33 36 34 32 27 31 24 18 13 13 12 15 16 15 13 13 16 16 15 14 13 13 12
47 43 24 17 13 11 6 7 7 6 6 4 10 8 5 7 18 46 13 8 7 8 13 13 14 17 22 26 27 27 28 33 35 38 38 36 32 26 23 18 17 19 22 22 21 18 17 16 16 16 15 15 15 15
29 18 19 16 24 6 9 12 8 7 9 6 6 7 6 5 5 10 7 6 3 3 8 11 12 16 21 24 24 23 23 24 32 36 38 40 39 33 30 26 25 26 30 32 31 28 26 23 20 19 19 19 19 17
18 25 18 15 20 14 14 12 12 9 7 8 6 6 5 9 5 6 4 8 8 8 5 5 7 8 13 20 20 20 20 20 25 31 36 38 40 38 36 34 34 35 37 39 37 33 32 31 28 25 23 22 21 20
19 24 15 15 14 10 10 9 13 12 9 8 9 15 10 4 6 7 4 15 13 10 11 7 7 9 11 12 18 22 23 24 24 26 30 31 32 32 33 33 35 33 36 39 40 37 36 36 33 30 28 27 27 26
14 12 16 20 9 5 8 11 10 9 12 11 9 12 6 5 5 4 5 10 18 14 14 12 11 12 14 15 17 19 21 25 27 28 30 29 30 31 31 30 29 32 35 35 42 42 37 37 36 33 31 32 30 27
14 21 11 22 14 17 7 7 9 8 6 14 8 11 6 8 3 11 8 16 16 10 8 9 9 10 10 13 14 15 18 20 22 24 26 27 25 25 27 28 26 28 28 32 34 32 37 37 39 37 34 32 30 30
14 30 12 10 10 15 14 6 3 5 8 7 3 3 3 3 11 13 15 15 11 10 6 0 3 4 6 8 8 9 9 12 17 22 24 23 22 24 21 23 23 23 25 27 28 30 30 32 35 35 35 33 31 32
19 29 11 11 9 7 10 11 10 11 11 10 8 8 7 7 15 15 14 12 11 13 12 10 6 1 3 5 5 6 6 7 10 16 19 20 21 22 21 21 20 19 20 24 27 29 32 32 32 33 35 34 33 33
17 18 7 11 6 5 6 11 10 15 8 10 10 8 8 4 4 14 15 14 13 12 8 6 6 5 3 1 6 7 5 8 9 11 15 18 17 15 15 15 15 17 18 20 20 21 21 22 25 27 30 31 31 31
20 15 6 5 2 3 6 5 4 2 3 4 6 3 2 1 2 1 10 8 8 9 8 8 8 7 5 4 3 3 5 8 10 12 14 15 15 15 14 14 15 15 17 16 18 19 18 19 20 22 23 24 25 25
7 8 9 6 8 7 12 10 6 4 4 3 4 5 4 3 4 4 8 10 8 6 7 6 6 8 8 8 8 9 11 12 15 12 10 10 10 12 13 12 12 11 12 14 17 17 17 17 20 22 23 22 22 23
Wind_Direction_850mb
209 207 208 208 208 203 204 201 194 197 196 195 195 192 191 190 191 191 194 189 183 136 157 173 168 163 160 171 138 331 20 347 33 65 83 25 353 349 315 265 166 146 95 344 28 37 342 360 344 76 200 83 87 58
210 206 207 206 206 203 203 200 193 195 195 192 192 191 189 189 191 189 187 189 182 150 155 169 172 169 157 138 133 39 119 139 49 99 45 52 355 342 327 302 322 331 179 212 169 215 318 360 31 30 84 106 59 4
209 208 206 206 205 203 200 198 192 193 194 191 190 189 187 187 189 191 190 183 174 143 136 163 181 189 198 192 173 163 186 153 124 95 114 123 231 319 233 257 300 295 10 194 38 289 249 347 315 238 343 320 312 308
215 208 206 204 201 200 198 197 189 192 191 189 189 187 185 185 185 186 185 181 178 144 128 182 188 182 198 214 218 210 171 157 150 168 94 123 149 178 231 254 246 242 23 199 270 284 295 55 92 47 26 20 2 359
214 209 205 200 198 198 197 193 188 189 187 186 187 184 184 180 179 178 178 182 184 167 157 150 158 176 190 198 206 195 172 180 166 116 92 218 238 74 300 229 248 199 191 162 225 267 255 306 308 331 332 330 334 336
207 208 201 198 195 196 196 190 189 188 185 184 184 181 182 177 172 162 159 196 187 168 151 104 158 153 170 176 166 162 176 167 181 201 219 231 235 187 109 219 255 230 232 241 236 305 297 294 302 314 326 321 309 308
213 214 207 198 191 196 192 187 188 185 181 181 180 178 177 173 173 182 182 177 176 173 162 100 83 110 155 147 133 137 141 158 213 237 221 257 220 205 150 230 254 247 248 258 259 314 289 282 291 301 297 302 299 292
208 211 203 192 188 190 186 186 184 180 179 175 173 171 169 169 176 180 149 157 164 162 160 115 122 114 152 117 122 143 166 190 232 297 218 227 234 197 250 241 252 263 275 269 272 282 293 297 297 299 295 293 290 288
200 201 194 191 184 184 183 183 179 175 172 166 162 162 159 165 162 155 149 161 170 161 161 134 145 201 156 130 127 152 168 154 207 228 251 263 235 226 225 243 263 284 297 294 289 293 294 291 296 303 306 301 294 294
196 188 185 181 181 180 179 179 173 171 164 158 158 149 163 170 150 134 130 159 179 220 192 158 131 154 157 140 134 141 81 179 168 253 303 237 258 256 255 260 273 279 279 280 285 294 304 302 306 302 294 290 293 290
192 186 182 181 177 175 176 175 168 167 162 155 157 144 142 146 141 149 132 148 174 285 196 171 157 137 173 117 167 197 179 182 191 262 208 275 278 254 238 190 313 324 302 283 280 289 297 299 307 306 300 287 280 278
187 183 178 177 173 173 173 171 167 167 165 166 150 134 133 157 147 145 178 154 186 210 170 150 143 123 138 128 99 152 149 175 238 308 127 263 255 258 248 261 286 302 298 285 287 294 301 303 303 301 302 298 284 273
176 172 172 171 171 173 172 170 168 166 157 133 128 156 163 167 166 181 183 205 162 168 164 153 131 130 122 109 93 140 170 215 121 187 231 231 262 213 216 282 277 303 302 299 300 304 307 306 302 302 300 288 276 262
166 166 170 170 171 171 172 168 168 161 142 147 153 153 188 185 214 177 159 154 171 153 148 140 120 119 117 110 139 161 217 110 162 279 235 248 229 206 227 252 286 300 302 303 305 305 303 303 301 298 294 286 273 248
159 164 168 169 170 172 170 168 163 159 155 125 140 194 190 165 139 167 154 140 138 150 145 119 90 109 121 118 113 116 67 237 203 229 223 231 193 198 261 298 306 308 306 308 310 311 307 303 297 286 302 297 217 199
162 163 167 169 169 169 169 166 161 164 170 154 197 93 133 122 93 147 153 136 147 148 144 121 115 97 156 140 127 207 152 221 238 216 209 165 178 216 285 300 299 302 308 317 323 319 316 304 251 191 163 175 158 153
156 161 169 169 171 168 168 156 157 161 176 191 199 173 156 146 157 164 161 153 156 150 146 128 114 186 107 102 229 197 202 220 211 203 173 181 191 243 286 302 303 305 306 325 327 332 337 320 171 169 157 169 167 161
160 165 168 169 169 162 161 168 167 142 167 167 147 162 168 165 163 161 161 156 153 181 156 167 126 137 165 170 235 223 218 217 190 185 187 194 209 236 284 293 300 297 297 312 327 356 44 79 137 150 137 159 156 154
162 163 172 169 163 153 143 174 176 131 195 139 161 168 171 170 179 177 171 165 176 172 147 150 108 169 205 218 206 196 205 203 207 200 203 208 223 243 271 287 297 275 269 288 297 157 138 170 175 168 159 167 182 189
159 170 175 166 168 142 101 84 167 144 164 153 156 165 166 170 174 179 170 171 167 164 157 148 187 197 192 194 194 190 203 203 207 211 222 228 228 246 266 276 276 249 239 245 243 266 200 201 211 212 211 214 211 187
124 130 149 162 150 84 92 107 97 127 125 131 151 150 132 151 153 162 159 164 162 186 210 202 189 183 192 199 212 216 206 198 210 220 234 212 220 231 242 254 259 245 236 234 246 257 237 212 203 207 225 228 208 210
95 115 100 108 81 78 81 60 100 101 101 119 144 125 122 113 143 153 153 163 165 190 201 192 190 200 200 200 198 205 208 211 215 220 218 225 217 228 237 234 238 225 220 220 218 218 208 197 196 197 206 221 229 235
97 90 60 55 81 59 51 38 100 60 106 123 116 100 118 130 144 144 82 90 126 190 214 217 213 209 208 207 209 209 209 210 212 216 218 220 219 227 232 227 229 224 211 202 204 204 206 207 208 214 223 231 238 242
67 57 37 40 32 26 8 28 34 70 79 54 63 84 42 36 87 58 95 71 45 136 200 209 223 220 219 216 215 215 218 219 217 218 222 223 221 224 228 226 225 220 214 212 213 215 221 226 231 235 239 239 237 230
73 14 24 14 17 16 21 9 359 32 57 9 87 64 23 9 81 60 51 12 26 38 40 203 216 221 227 228 221 224 232 237 234 230 226 226 227 227 228 228 228 223 221 222 224 227 231 232 236 239 238 232 226 224
68 16 35 4 10 33 357 25 16 2 357 47 33 335 341 58 71 69 26 344 346 349 350 322 269 239 240 247 246 240 244 251 253 249 239 238 238 242 243 240 236 234 232 230 230 233 235 238 237 238 237 231 227 227
57 2 15 26 14 21 63 36 28 38 38 20 348 345 337 93 73 65 5 358 352 335 326 308 279 262 261 258 262 261 256 251 254 258 251 246 245 244 243 241 243 239 237 239 235 234 239 242 240 236 234 231 231 231
64 31 28 353 45 37 86 55 35 34 8 340 297 27 31 10 40 342 350 340 338 339 321 292 273 268 262 264 271 261 260 260 251 247 246 248 248 246 243 243 240 240 239 240 236 235 236 239 243 238 232 232 232 232
37 357 7 27 46 51 43 53 50 21 353 359 28 75 94 78 356 349 352 353 357 351 347 318 263 268 268 275 276 272 263 254 248 246 253 251 245 246 251 249 243 237 237 237 236 232 233 235 237 239 236 231 229 228
3 4 28 31 59 38 31 37 67 58 63 70 94 105 97 105 50 32 13 7 14 21 25 20 15 157 239 253 276 302 302 276 260 249 245 245 244 250 259 263 258 246 237 234 230 225 224 227 230 233 231 230 230 230
356 359 57 49 75 28 3 357 60 57 57 64 69 97 125 131 55 36 23 16 13 17 7 7 7 9 26 279 265 261 290 305 284 277 274 267 258 248 241 238 243 250 244 230 222 218 217 221 223 223 225 227 227 226
13 29 21 46 44 19 1 4 352 338 3 12 31 27 95 342 314 53 16 15 348 339 355 13 356 3 1 353 338 324 299 284 297 296 284 278 272 271 256 239 228 218 212 214 217 209 207 217 221 220 218 219 218 217
339 13 38 37 23 19 7 1 27 27 43 32 28 18 358 339 303 338 353 2 5 343 312 314 342 345 344 338 325 301 287 285 288 295 311 314 274 253 235 220 212 204 199 187 206 199 192 201 208 204 195 195 200 199